Tracking 23612 objects as of 17-Sep-2021
HD Live streaming from Space Station
objects crossing your sky now
Track INSPIRATION-4

SL-14 R/B

Track SL-14 R/B now!
10-day predictions
SL-14 R/B is classified as:


NORAD ID: 15945
Int'l Code: 1985-069B
Perigee: 610.1 km
Apogee: 637.0 km
Inclination: 82.5 °
Period: 97.0 minutes
Semi major axis: 6994 km
RCS: 5.1348 m2 (large)
Launch date: August 8, 1985
Source: Commonwealth of Independent States (former USSR) (CIS)
Launch site: PLESETSK MISSILE AND SPACE COMPLEX (PKMTR)

Note: This is a ROCKET BODY
aabbcc
Your satellite tracking list
Your tracking list is empty




NASA's NSSDC Master Catalog

Two Line Element Set (TLE):
1 15945U 85069B   21259.58341996  .00000089  00000-0  77085-5 0  9995
2 15945  82.5260 119.0379 0019222 194.0759 165.9924 14.84093337951261
Source of the keplerian elements: AFSPC